TimeEDT,TemperatureF,Dew PointF,Humidity,Sea Level PressureIn,VisibilityMPH,Wind Direction,Wind SpeedMPH,Gust SpeedMPH,PrecipitationIn,Events,Conditions,WindDirDegrees,DateUTC
12:15 AM,68.0,68.0,100,29.99,4.0,Calm,Calm,-,N/A,Rain,Heavy Rain,0,2013-10-08 04:15:00
12:35 AM,68.0,68.0,100,29.98,10.0,NE,10.4,-,N/A,Rain,Rain,50,2013-10-08 04:35:00
12:55 AM,68.0,68.0,100,29.98,10.0,ENE,12.7,-,N/A,Rain,Rain,60,2013-10-08 04:55:00
1:15 AM,68.0,68.0,100,29.97,10.0,NNE,9.2,-,N/A,Rain,Light Rain,30,2013-10-08 05:15:00
1:35 AM,64.4,64.4,100,29.96,10.0,NNE,16.1,23.0,N/A,Rain,Light Rain,30,2013-10-08 05:35:00
1:55 AM,66.2,66.2,100,29.95,10.0,North,9.2,-,N/A,Rain,Light Rain,10,2013-10-08 05:55:00
2:15 AM,64.4,60.8,88,29.95,10.0,NNE,13.8,18.4,N/A,Rain,Light Rain,30,2013-10-08 06:15:00
2:35 AM,64.4,60.8,88,29.96,10.0,NNE,10.4,-,N/A,Rain,Light Rain,20,2013-10-08 06:35:00
2:55 AM,62.6,59.0,88,29.96,10.0,NE,10.4,-,N/A,,Clear,40,2013-10-08 06:55:00
3:15 AM,62.6,59.0,88,29.96,10.0,NNE,10.4,-,N/A,,Scattered Clouds,30,2013-10-08 07:15:00
3:35 AM,62.6,57.2,82,29.96,10.0,NNE,9.2,-,N/A,,Scattered Clouds,20,2013-10-08 07:35:00
3:55 AM,62.6,57.2,82,29.97,10.0,NNE,9.2,-,N/A,,Mostly Cloudy,30,2013-10-08 07:55:00
4:15 AM,62.6,55.4,77,29.97,10.0,NNE,9.2,-,N/A,,Overcast,20,2013-10-08 08:15:00
4:35 AM,62.6,55.4,77,29.97,10.0,NNE,10.4,-,N/A,,Mostly Cloudy,30,2013-10-08 08:35:00
4:55 AM,62.6,55.4,77,29.98,10.0,NNE,12.7,-,N/A,,Mostly Cloudy,20,2013-10-08 08:55:00
5:15 AM,62.6,53.6,72,29.99,10.0,NE,9.2,-,N/A,,Overcast,40,2013-10-08 09:15:00
5:35 AM,62.6,53.6,72,30.00,10.0,NNE,10.4,-,N/A,,Overcast,30,2013-10-08 09:35:00
5:55 AM,62.6,53.6,72,30.01,10.0,NE,9.2,-,N/A,,Overcast,40,2013-10-08 09:55:00
6:15 AM,62.6,53.6,72,30.02,10.0,NE,11.5,-,N/A,,Overcast,40,2013-10-08 10:15:00
6:35 AM,62.6,53.6,72,30.03,10.0,NNE,9.2,-,N/A,,Overcast,30,2013-10-08 10:35:00
6:55 AM,62.6,51.8,68,30.03,10.0,NNE,8.1,-,N/A,,Overcast,30,2013-10-08 10:55:00
7:15 AM,62.6,51.8,68,30.04,10.0,NNE,10.4,-,N/A,,Overcast,30,2013-10-08 11:15:00
7:35 AM,62.6,51.8,68,30.05,10.0,NE,9.2,-,N/A,,Overcast,40,2013-10-08 11:35:00
7:55 AM,62.6,51.8,68,30.05,10.0,NNE,10.4,-,N/A,,Overcast,30,2013-10-08 11:55:00
8:15 AM,62.6,51.8,68,30.06,10.0,NNE,12.7,17.3,N/A,,Overcast,20,2013-10-08 12:15:00
8:35 AM,62.6,51.8,68,30.06,10.0,NNE,10.4,-,N/A,,Overcast,30,2013-10-08 12:35:00
8:55 AM,62.6,51.8,68,30.07,10.0,NNE,12.7,-,N/A,,Overcast,30,2013-10-08 12:55:00
9:15 AM,62.6,51.8,68,30.08,10.0,NNE,12.7,19.6,N/A,,Overcast,30,2013-10-08 13:15:00
9:35 AM,64.4,51.8,64,30.09,10.0,NE,17.3,23.0,N/A,,Overcast,40,2013-10-08 13:35:00
9:55 AM,64.4,51.8,64,30.09,10.0,NE,13.8,20.7,N/A,,Overcast,40,2013-10-08 13:55:00
10:15 AM,64.4,51.8,64,30.09,10.0,NNE,16.1,23.0,N/A,,Overcast,30,2013-10-08 14:15:00
10:35 AM,64.4,51.8,64,30.10,10.0,NE,17.3,24.2,N/A,,Overcast,40,2013-10-08 14:35:00
10:55 AM,64.4,51.8,64,30.11,10.0,NE,17.3,25.3,N/A,,Overcast,40,2013-10-08 14:55:00
11:15 AM,64.4,51.8,64,30.12,10.0,NE,19.6,25.3,N/A,,Overcast,40,2013-10-08 15:15:00
11:35 AM,66.2,51.8,60,30.12,10.0,ENE,20.7,25.3,N/A,,Overcast,60,2013-10-08 15:35:00
11:55 AM,64.4,51.8,64,30.12,10.0,NE,17.3,20.7,N/A,,Overcast,50,2013-10-08 15:55:00
12:15 PM,66.2,51.8,60,30.12,10.0,NE,16.1,24.2,N/A,,Overcast,50,2013-10-08 16:15:00
12:35 PM,66.2,51.8,60,30.12,10.0,NNE,15.0,23.0,N/A,,Overcast,30,2013-10-08 16:35:00
12:55 PM,64.4,51.8,64,30.12,10.0,NE,13.8,20.7,N/A,,Overcast,40,2013-10-08 16:55:00
1:15 PM,64.4,51.8,64,30.12,10.0,NNE,17.3,24.2,N/A,,Overcast,30,2013-10-08 17:15:00
1:35 PM,64.4,51.8,64,30.13,10.0,NE,18.4,27.6,N/A,,Overcast,40,2013-10-08 17:35:00
1:55 PM,62.6,51.8,68,30.13,10.0,NE,15.0,23.0,N/A,,Overcast,50,2013-10-08 17:55:00
2:15 PM,60.8,53.6,77,30.13,7.0,NE,15.0,25.3,N/A,,Drizzle,40,2013-10-08 18:15:00
2:35 PM,60.8,53.6,77,30.12,10.0,NE,12.7,23.0,N/A,,Overcast,50,2013-10-08 18:35:00
2:55 PM,60.8,53.6,77,30.12,10.0,NE,16.1,24.2,N/A,,Overcast,40,2013-10-08 18:55:00
3:15 PM,60.8,51.8,72,30.12,10.0,NE,13.8,-,N/A,,Overcast,40,2013-10-08 19:15:00
3:35 PM,60.8,51.8,72,30.13,10.0,NNE,15.0,19.6,N/A,,Overcast,20,2013-10-08 19:35:00
3:55 PM,60.8,51.8,72,30.13,10.0,NE,19.6,-,N/A,,Overcast,50,2013-10-08 19:55:00
4:15 PM,60.8,51.8,72,30.14,10.0,NE,18.4,25.3,N/A,,Overcast,40,2013-10-08 20:15:00
4:35 PM,60.8,51.8,72,30.14,10.0,NE,11.5,-,N/A,,Overcast,50,2013-10-08 20:35:00
4:55 PM,60.8,51.8,72,30.14,10.0,NE,20.7,27.6,N/A,,Overcast,40,2013-10-08 20:55:00
5:15 PM,59.0,51.8,77,30.14,10.0,NE,12.7,-,N/A,Rain,Light Rain,40,2013-10-08 21:15:00
5:35 PM,59.0,51.8,77,30.14,10.0,NNE,12.7,-,N/A,Rain,Light Rain,30,2013-10-08 21:35:00
5:55 PM,59.0,51.8,77,30.15,10.0,NNE,11.5,24.2,N/A,,Overcast,30,2013-10-08 21:55:00
6:15 PM,59.0,51.8,77,30.15,10.0,NNE,15.0,21.9,N/A,,Overcast,30,2013-10-08 22:15:00
6:35 PM,59.0,51.8,77,30.16,10.0,NE,16.1,19.6,N/A,,Overcast,40,2013-10-08 22:35:00
6:55 PM,59.0,51.8,77,30.16,10.0,NE,18.4,23.0,N/A,,Overcast,40,2013-10-08 22:55:00
7:15 PM,59.0,50.0,72,30.16,10.0,NE,12.7,23.0,N/A,,Overcast,40,2013-10-08 23:15:00
7:35 PM,59.0,50.0,72,30.16,10.0,NE,12.7,18.4,N/A,,Overcast,40,2013-10-08 23:35:00
7:55 PM,59.0,50.0,72,30.16,10.0,NE,12.7,19.6,N/A,,Overcast,40,2013-10-08 23:55:00
8:15 PM,59.0,50.0,72,30.16,10.0,NE,13.8,-,N/A,,Overcast,40,2013-10-09 00:15:00
8:35 PM,59.0,50.0,72,30.17,10.0,NE,11.5,16.1,N/A,,Overcast,50,2013-10-09 00:35:00
8:55 PM,59.0,50.0,72,30.17,10.0,NE,10.4,17.3,N/A,,Overcast,40,2013-10-09 00:55:00
9:15 PM,59.0,50.0,72,30.17,10.0,NNE,6.9,-,N/A,,Overcast,30,2013-10-09 01:15:00
9:35 PM,59.0,50.0,72,30.17,10.0,NNE,6.9,-,N/A,,Overcast,30,2013-10-09 01:35:00
9:55 PM,59.0,50.0,72,30.18,10.0,NE,9.2,-,N/A,,Overcast,40,2013-10-09 01:55:00
10:15 PM,59.0,50.0,72,30.18,10.0,NE,9.2,16.1,N/A,,Overcast,40,2013-10-09 02:15:00
10:35 PM,59.0,50.0,72,30.18,10.0,NE,11.5,-,N/A,,Overcast,40,2013-10-09 02:35:00
10:55 PM,59.0,48.2,67,30.18,10.0,NE,15.0,24.2,N/A,,Mostly Cloudy,40,2013-10-09 02:55:00
11:15 PM,59.0,48.2,67,30.18,10.0,NE,10.4,17.3,N/A,,Mostly Cloudy,40,2013-10-09 03:15:00
11:35 PM,59.0,48.2,67,30.18,10.0,NE,10.4,17.3,N/A,,Overcast,50,2013-10-09 03:35:00
11:55 PM,59.0,50.0,72,30.17,10.0,NE,10.4,-,N/A,,Overcast,40,2013-10-09 03:55:00